EW2422 Weather Reports


time (UTC)temp
C
wind
direction
speed
KPH
gust
KPH
rain 1hr
cm
rain 24hr
cm
rain mn
cm
humidity
%
barometer
mb
20210920024033 21 346 0.0 1.6 0.00 0.00 0.00 41 1012.3
20210920023530 21 346 1.6 1.6 0.00 0.00 0.00 40 1012.3
20210920023042 21 344 0.0 3.2 0.00 0.00 0.00 41 1012.2
20210920022535 22 345 0.0 3.2 0.00 0.00 0.00 38 1012.1
20210920022030 22 6 0.0 3.2 0.00 0.00 0.00 37 1012.1
20210920021527 23 8 0.0 3.2 0.00 0.00 0.00 36 1012.1
20210920021055 23 39 1.6 3.2 0.00 0.00 0.00 35 1012.0
20210920020531 23 125 0.0 4.8 0.00 0.00 0.00 35 1012.1
20210920020025 23 34 1.6 1.6 0.00 0.00 0.00 34 1012.1
20210920015542 24 42 0.0 1.6 0.00 0.00 0.00 34 1012.0
20210920015039 24 229 0.0 1.6 0.00 0.00 0.00 34 1012.1
20210920014534 24 167 0.0 4.8 0.00 0.00 0.00 33 1012.0
20210920014031 24 82 1.6 4.8 0.00 0.00 0.00 33 1012.0
20210920013528 25 150 0.0 9.7 0.00 0.00 0.00 33 1012.0
20210920013023 25 72 1.6 9.7 0.00 0.00 0.00 33 1012.0
20210920012539 25 51 3.2 4.8 0.00 0.00 0.00 32 1012.0
20210920012035 25 118 0.0 6.4 0.00 0.00 0.00 32 1012.0
20210920011530 25 89 3.2 8.0 0.00 0.00 0.00 32 1012.1
20210920011103 25 44 1.6 8.0 0.00 0.00 0.00 32 1012.0
20210920010539 25 109 1.6 12.9 0.00 0.00 0.00 32 1012.0
20210920010034 25 128 1.6 12.9 0.00 0.00 0.00 32 1012.0
20210920005530 26 70 4.8 9.7 0.00 0.00 0.00 32 1012.0
20210920005028 26 157 1.6 8.0 0.00 0.00 0.00 32 1012.0
20210920004524 26 132 1.6 8.0 0.00 0.00 0.00 31 1012.0
20210920004039 26 217 1.6 8.0 0.00 0.00 0.00 31 1012.0
20210920003536 26 131 3.2 8.0 0.00 0.00 0.00 31 1012.0
20210920003030 26 120 3.2 8.0 0.00 0.00 0.00 31 1012.1
20210920002525 26 161 0.0 8.0 0.00 0.00 0.00 31 1012.1
20210920002042 26 107 1.6 4.8 0.00 0.00 0.00 31 1012.2
20210920001538 26 124 1.6 16.1 0.00 0.00 0.00 31 1012.2
20210920001045 26 340 3.2 9.7 0.00 0.00 0.00 31 1012.2
20210920000541 26 279 3.2 9.7 0.00 0.00 0.00 30 1012.2
20210920000036 27 308 1.6 6.4 0.00 0.00 0.00 30 1012.3
20210919235531 27 169 1.6 6.4 0.00 0.00 0.00 30 1012.3
20210919235028 27 167 1.6 6.4 0.00 0.00 0.00 29 1012.3
20210919234525 27 70 3.2 9.7 0.00 0.00 0.00 29 1012.3
20210919234042 27 168 1.6 9.7 0.00 0.00 0.00 30 1012.4
20210919233538 27 50 1.6 8.0 0.00 0.00 0.00 29 1012.5
20210919233032 27 197 3.2 8.0 0.00 0.00 0.00 29 1012.4
20210919232533 27 126 4.8 8.0 0.00 0.00 0.00 29 1012.5
20210919232029 27 194 3.2 8.0 0.00 0.00 0.00 30 1012.5
20210919231524 27 128 1.6 12.9 0.00 0.00 0.00 31 1012.7
20210919231050 27 119 1.6 14.5 0.00 0.00 0.00 31 1012.8
20210919230524 27 345 4.8 14.5 0.00 0.00 0.00 30 1012.8
20210919230039 27 72 1.6 8.0 0.00 0.00 0.00 31 1012.6
20210919225536 27 102 1.6 6.4 0.00 0.00 0.00 31 1012.7
20210919225032 27 113 3.2 6.4 0.00 0.00 0.00 30 1012.8
20210919224527 27 339 1.6 8.0 0.00 0.00 0.00 30 1012.8
20210919224042 27 332 4.8 9.7 0.00 0.00 0.00 30 1012.8
20210919223539 27 162 3.2 9.7 0.00 0.00 0.00 31 1012.9
20210919223034 27 234 3.2 9.7 0.00 0.00 0.00 31 1013.0
20210919222529 27 66 4.8 12.9 0.00 0.00 0.00 31 1013.1
20210919222026 27 304 3.2 12.9 0.00 0.00 0.00 31 1013.0
20210919221541 28 101 3.2 9.7 0.00 0.00 0.00 30 1013.1
20210919221047 28 138 0.0 3.2 0.00 0.00 0.00 31 1013.1
20210919220524 27 224 1.6 6.4 0.00 0.00 0.00 32 1013.1
20210919220022 26 347 0.0 6.4 0.00 0.00 0.00 34 1013.2
20210919215538 26 94 1.6 11.3 0.00 0.00 0.00 34 1013.3
20210919215034 26 153 1.6 11.3 0.00 0.00 0.00 34 1013.3
20210919214530 26 100 3.2 9.7 0.00 0.00 0.00 33 1013.4
20210919214025 27 98 1.6 6.4 0.00 0.00 0.00 32 1013.4
20210919213541 27 253 1.6 6.4 0.00 0.00 0.00 32 1013.4
20210919213036 27 129 1.6 9.7 0.00 0.00 0.00 32 1013.5
20210919212532 27 307 1.6 9.7 0.00 0.00 0.00 31 1013.4
20210919212028 28 221 6.4 9.7 0.00 0.00 0.00 30 1013.5
20210919211523 28 224 3.2 12.9 0.00 0.00 0.00 31 1013.5
20210919211049 27 210 4.8 12.9 0.00 0.00 0.00 30 1013.7
20210919210525 27 155 3.2 17.7 0.00 0.00 0.00 32 1013.8
20210919210022 27 155 8.0 17.7 0.00 0.00 0.00 31 1013.7
20210919205537 27 230 4.8 11.3 0.00 0.00 0.00 32 1013.7
20210919205033 27 220 3.2 8.0 0.00 0.00 0.00 32 1013.8
20210919204529 35 248 3.2 11.3 0.00 0.00 0.00 33 1013.8
20210919204025 27 224 4.8 12.9 0.00 0.00 0.00 34 1013.9
20210919203526 26 127 3.2 12.9 0.00 0.00 0.00 34 1014.0
20210919203040 26 224 4.8 9.7 0.00 0.00 0.00 34 1014.0
20210919202536 26 312 3.2 14.5 0.00 0.00 0.00 34 1014.2
20210919202031 26 278 6.4 14.5 0.00 0.00 0.00 33 1014.3
20210919201527 26 224 4.8 12.9 0.00 0.00 0.00 32 1014.3
20210919201055 27 222 1.6 12.9 0.00 0.00 0.00 32 1014.2
20210919200531 27 225 3.2 14.5 0.00 0.00 0.00 32 1014.1
20210919200026 26 33 4.8 14.5 0.00 0.00 0.00 32 1014.3
20210919195541 27 65 6.4 9.7 0.00 0.00 0.00 32 1014.2
20210919195037 27 210 4.8 11.3 0.00 0.00 0.00 32 1014.3
20210919194532 26 164 3.2 11.3 0.00 0.00 0.00 33 1014.4
20210919194027 26 162 1.6 11.3 0.00 0.00 0.00 36 1014.4
20210919193525 26 221 3.2 11.3 0.00 0.00 0.00 35 1014.4
20210919193036 25 210 4.8 11.3 0.00 0.00 0.00 38 1014.5
20210919192532 25 180 3.2 11.3 0.00 0.00 0.00 37 1014.5
20210919192027 25 63 1.6 9.7 0.00 0.00 0.00 39 1014.6
20210919191523 25 150 4.8 9.7 0.00 0.00 0.00 37 1014.5
20210919191049 25 117 3.2 8.0 0.00 0.00 0.00 42 1014.7
20210919190527 25 134 1.6 6.4 0.00 0.00 0.00 40 1014.8
20210919190035 25 112 1.6 12.9 0.00 0.00 0.00 43 1014.8
20210919185531 24 126 3.2 12.9 0.00 0.00 0.00 44 1014.8
20210919185027 25 225 4.8 12.9 0.00 0.00 0.00 43 1014.8
20210919184523 24 213 3.2 12.9 0.00 0.00 0.00 44 1014.9
20210919184039 24 136 3.2 11.3 0.00 0.00 0.00 44 1014.9
20210919183537 24 219 3.2 11.3 0.00 0.00 0.00 43 1015.0
20210919183032 24 8 3.2 11.3 0.00 0.00 0.00 43 1015.0
20210919182529 24 135 4.8 11.3 0.00 0.00 0.00 44 1015.1
20210919182026 24 167 3.2 8.0 0.00 0.00 0.00 46 1015.2
20210919181542 23 128 1.6 12.9 0.00 0.00 0.00 46 1015.2
20210919181049 23 162 3.2 12.9 0.00 0.00 0.00 46 1015.2
20210919180525 23 235 4.8 8.0 0.00 0.00 0.00 45 1015.3
20210919180039 23 148 1.6 14.5 0.00 0.00 0.00 47 1015.3
20210919175535 23 225 4.8 14.5 0.00 0.00 0.00 45 1015.3
20210919175030 23 115 1.6 12.9 0.00 0.00 0.00 46 1015.4
20210919174525 23 231 1.6 8.0 0.00 0.00 0.00 46 1015.4
20210919174027 23 163 0.0 6.4 0.00 0.00 0.00 48 1015.4
20210919173524 22 269 1.6 11.3 0.00 0.00 0.00 49 1015.3
20210919173039 22 151 3.2 11.3 0.00 0.00 0.00 49 1015.3
20210919172534 22 143 1.6 8.0 0.00 0.00 0.00 51 1015.3
20210919172031 22 264 3.2 8.0 0.00 0.00 0.00 52 1015.3
20210919171526 21 193 4.8 14.5 0.00 0.00 0.00 53 1015.2
20210919171053 21 219 4.8 14.5 0.00 0.00 0.00 55 1015.1
20210919170528 21 243 3.2 8.0 0.00 0.00 0.00 54 1015.1
20210919170022 21 123 3.2 6.4 0.00 0.00 0.00 56 1015.1
20210919165539 21 186 3.2 8.0 0.00 0.00 0.00 57 1015.1
20210919165034 21 293 3.2 8.0 0.00 0.00 0.00 57 1015.0
20210919164531 21 204 1.6 8.0 0.00 0.00 0.00 58 1015.1
20210919164029 20 151 1.6 9.7 0.00 0.00 0.00 61 1015.1
20210919163542 20 175 1.6 9.7 0.00 0.00 0.00 63 1015.1
20210919163038 19 105 1.6 8.0 0.00 0.00 0.00 64 1015.1
20210919162533 19 222 3.2 8.0 0.00 0.00 0.00 65 1015.1
20210919162029 18 353 1.6 6.4 0.00 0.00 0.00 67 1015.1
20210919161529 18 298 1.6 4.8 0.00 0.00 0.00 70 1015.2
20210919161056 18 64 1.6 3.2 0.00 0.00 0.00 70 1015.2
20210919160533 17 58 0.0 3.2 0.00 0.00 0.00 72 1015.1
20210919160028 17 210 0.0 4.8 0.00 0.00 0.00 74 1015.1
20210919155525 17 89 1.6 4.8 0.00 0.00 0.00 75 1015.0
20210919155041 16 60 1.6 4.8 0.00 0.00 0.00 77 1015.0
20210919154537 16 143 0.0 4.8 0.00 0.00 0.00 80 1015.0
20210919154032 16 65 1.6 4.8 0.00 0.00 0.00 83 1015.0
20210919153526 15 116 0.0 3.2 0.00 0.00 0.00 85 1015.0
20210919153041 15 53 0.0 0.0 0.00 0.00 0.00 87 1014.9
20210919152538 15 52 0.0 0.0 0.00 0.00 0.00 87 1015.0
20210919152033 15 11 0.0 1.6 0.00 0.00 0.00 88 1015.0
20210919151529 15 10 0.0 1.6 0.00 0.00 0.00 89 1015.0
20210919151056 14 11 0.0 1.6 0.00 0.00 0.00 90 1015.0
20210919150531 14 11 0.0 1.6 0.00 0.00 0.00 90 1015.0
20210919150026 13 11 0.0 1.6 0.00 0.00 0.00 91 1015.1
20210919145533 13 11 0.0 1.6 0.00 0.00 0.00 90 1015.0
20210919145030 13 5 0.0 1.6 0.00 0.00 0.00 90 1015.0
20210919144529 13 5 0.0 0.0 0.00 0.00 0.00 90 1015.0
20210919144105 -17 0.0 0.0 0.00 0.00 0.00 1015.0
20210919143036 -17 0.0 0.0 0.00 0.00 0.00 1015.1
20210919142532 -17 0.0 0.0 0.00 0.00 0.00 1015.1
20210919142033 -17 0.0 0.0 0.00 0.00 0.00 1015.1
20210919140534 -17 0.0 0.0 0.00 0.00 0.00 1015.0
20210919140029 -17 0.0 0.0 0.00 0.00 0.00 1014.9
20210919135526 -17 0.0 0.0 0.00 0.00 0.00 1014.8
20210919135105 -17 0.0 0.0 0.00 0.00 0.00 1014.9
20210919134545 -17 0.0 0.0 0.00 0.00 0.00 1014.8
20210919134041 -17 0.0 0.0 0.00 0.00 0.00 1014.7
20210919133537 -17 0.0 0.0 0.00 0.00 0.00 1014.6
20210919133037 -17 0.0 0.0 0.00 0.00 0.00 1014.5
20210919132612 -17 0.0 0.0 0.00 0.00 0.00 1014.5
20210919132034 -17 0.0 0.0 0.00 0.00 0.00 1014.4
20210919131530 -17 0.0 0.0 0.00 0.00 0.00 1014.3
20210919131056 -17 0.0 0.0 0.00 0.00 0.00 1014.3
20210919130532 -17 0.0 0.0 0.00 0.00 0.00 1014.2
20210919130112 -17 0.0 0.0 0.00 0.00 0.00 1014.2
20210919125531 -17 0.0 0.0 0.00 0.00 0.00 1014.0
20210919125024 -17 0.0 0.0 0.00 0.00 0.00 1014.1
20210919124537 -17 0.0 0.0 0.00 0.00 0.00 1014.0
20210919124033 -17 0.0 0.0 0.00 0.00 0.00 1014.0
20210919123615 -17 0.0 0.0 0.00 0.00 0.00 1014.0
20210919123051 -17 0.0 0.0 0.00 0.00 0.00 1014.0
20210919122539 -17 0.0 0.0 0.00 0.00 0.00 1014.1
20210919122035 -17 0.0 0.0 0.00 0.00 0.00 1013.9
20210919121531 -17 0.0 0.0 0.00 0.00 0.00 1013.9
20210919120528 14 63 1.6 9.7 0.00 0.00 0.00 91 1013.8
20210919120043 14 354 1.6 3.2 0.00 0.00 0.00 91 1013.7
20210919115538 14 65 0.0 3.2 0.00 0.00 0.00 91 1013.7
20210919115034 14 64 0.0 4.8 0.00 0.00 0.00 92 1013.7
20210919114529 14 55 3.2 4.8 0.00 0.00 0.00 92 1013.5
20210919114025 14 153 1.6 3.2 0.00 0.00 0.00 92 1013.4
20210919113524 14 181 0.0 0.0 0.00 0.00 0.00 91 1013.4
20210919113035 14 181 0.0 0.0 0.00 0.00 0.00 91 1013.5
20210919112528 15 181 0.0 0.0 0.00 0.00 0.00 91 1013.3
20210919112024 15 181 0.0 1.6 0.00 0.00 0.00 90 1013.4
20210919111523 15 210 0.0 1.6 0.00 0.00 0.00 90 1013.4
20210919111051 15 56 0.0 1.6 0.00 0.00 0.00 90 1013.4
20210919110528 15 56 0.0 1.6 0.00 0.00 0.00 90 1013.3
20210919110040 15 57 0.0 0.0 0.00 0.00 0.00 89 1013.3
20210919105536 15 56 0.0 1.6 0.00 0.00 0.00 89 1013.4
20210919105030 15 210 0.0 3.2 0.00 0.00 0.00 89 1013.4
20210919104526 15 210 0.0 4.8 0.00 0.00 0.00 89 1013.4
20210919104038 16 359 0.0 4.8 0.00 0.00 0.00 89 1013.5
20210919103532 16 229 0.0 1.6 0.00 0.00 0.00 89 1013.5
20210919103027 16 231 0.0 3.2 0.00 0.00 0.00 89 1013.5
20210919102523 16 231 0.0 3.2 0.00 0.00 0.00 89 1013.5
20210919102039 16 247 0.0 4.8 0.00 0.00 0.00 89 1013.4
20210919101532 16 249 1.6 6.4 0.00 0.00 0.00 89 1013.5
20210919101058 16 207 1.6 8.0 0.00 0.00 0.00 89 1013.6
20210919100532 16 245 1.6 9.7 0.00 0.00 0.00 89 1013.7
20210919100027 16 284 1.6 3.2 0.00 0.00 0.00 89 1013.8
20210919095525 16 208 0.0 4.8 0.00 0.00 0.00 89 1013.7
20210919095040 16 269 1.6 8.0 0.00 0.00 0.00 89 1013.6
20210919094534 16 238 1.6 8.0 0.00 0.00 0.00 89 1013.5
20210919094034 16 245 0.0 16.1 0.00 0.00 0.00 89 1013.6
20210919093037 16 229 1.6 8.0 0.00 0.00 0.00 89 1013.5
20210919092533 16 243 0.0 6.4 0.00 0.00 0.00 89 1013.5
20210919092029 16 142 3.2 6.4 0.00 0.00 0.00 89 1013.5
20210919091525 16 224 0.0 3.2 0.00 0.00 0.00 89 1013.5
20210919091053 16 224 0.0 3.2 0.00 0.00 0.00 89 1013.5
20210919090530 16 247 0.0 3.2 0.00 0.00 0.00 89 1013.4
20210919090036 16 56 0.0 3.2 0.00 0.00 0.00 89 1013.2
20210919085532 16 131 1.6 11.3 0.00 0.00 0.00 89 1013.2
20210919085028 16 231 4.8 11.3 0.00 0.00 0.00 89 1013.3
20210919084525 16 227 3.2 9.7 0.00 0.00 0.00 89 1013.4
20210919084040 16 171 1.6 6.4 0.00 0.00 0.00 89 1013.4
20210919083537 16 201 1.6 8.0 0.00 0.00 0.00 89 1013.2
20210919083032 16 228 1.6 8.0 0.00 0.00 0.00 89 1013.2
20210919082527 16 233 1.6 9.7 0.00 0.00 0.00 88 1013.2
20210919082027 16 221 3.2 9.7 0.00 0.00 0.00 88 1013.1
20210919081542 17 25 0.0 11.3 0.00 0.00 0.00 88 1013.1
20210919081050 17 210 1.6 11.3 0.00 0.00 0.00 88 1013.2
20210919080526 17 181 1.6 3.2 0.00 0.00 0.00 88 1013.0
20210919080041 17 281 0.0 4.8 0.00 0.00 0.00 88 1013.1
20210919075533 17 74 0.0 4.8 0.00 0.00 0.00 88 1013.1
20210919075029 17 91 0.0 3.2 0.00 0.00 0.00 88 1013.1
20210919074523 17 84 1.6 6.4 0.00 0.00 0.00 88 1013.1
20210919074019 17 152 1.6 14.5 0.00 0.00 0.00 87 1013.1
20210919073536 17 304 1.6 6.4 0.00 0.00 0.00 87 1013.0
20210919073031 17 336 0.0 3.2 0.00 0.00 0.00 86 1012.9
20210919072524 17 218 1.6 4.8 0.00 0.00 0.00 86 1013.0
20210919072019 17 231 1.6 4.8 0.00 0.00 0.00 86 1013.0
20210919071535 17 259 1.6 4.8 0.00 0.00 0.00 85 1013.1
20210919071043 17 224 1.6 3.2 0.00 0.00 0.00 85 1013.0
20210919070531 17 23 1.6 3.2 0.00 0.00 0.00 85 1012.8
20210919070027 17 95 1.6 4.8 0.00 0.00 0.00 85 1012.9
20210919065521 17 42 1.6 8.0 0.00 0.00 0.00 84 1013.0
20210919065021 17 330 0.0 8.0 0.00 0.00 0.00 84 1013.1
20210919064537 17 46 4.8 6.4 0.00 0.00 0.00 84 1012.9
20210919064032 17 88 1.6 12.9 0.00 0.00 0.00 84 1013.0
20210919063529 17 22 6.4 12.9 0.00 0.00 0.00 84 1013.0
20210919063023 17 61 3.2 8.0 0.00 0.00 0.00 85 1013.0
20210919062539 17 49 3.2 6.4 0.00 0.00 0.00 85 1013.1
20210919062031 17 64 3.2 6.4 0.00 0.00 0.00 84 1013.1
20210919061527 17 91 1.6 4.8 0.00 0.00 0.00 84 1013.1
20210919061059 17 326 1.6 8.0 0.00 0.00 0.00 84 1013.1
20210919060535 17 338 0.0 8.0 0.00 0.00 0.00 84 1013.0